DW0950 Weather Reports


time (UTC)temp
C
wind
direction
speed
KPH
gust
KPH
rain 1hr
cm
rain 24hr
cm
rain mn
cm
humidity
%
barometer
mb
20260507063836 13 199 4.8 12.9 0.00 0.18 0.10 90 1013.8
20260507062806 13 209 6.4 12.9 0.00 0.18 0.10 90 1013.7
20260507054421 12 170 0.0 9.7 0.00 0.18 0.10 92 1013.7
20260507053407 12 166 3.2 19.3 0.00 0.18 0.10 92 1013.7
20260507051301 12 148 4.8 16.1 0.00 0.20 0.10 92 1013.6
20260507050226 12 141 3.2 9.7 0.00 0.20 0.10 92 1013.5
20260507045231 12 206 6.4 14.5 0.00 0.20 0.10 92 1013.4
20260507043106 12 192 8.0 19.3 0.00 0.20 0.10 92 1013.1
20260507042119 12 165 6.4 17.7 0.00 0.20 0.10 92 1013.0
20260507041111 12 194 8.0 17.7 0.00 0.20 0.10 92 1012.9
20260507040126 12 204 6.4 16.1 0.00 0.20 0.10 92 1012.9
20260507035144 12 175 6.4 16.1 0.00 0.20 0.10 92 1012.7
20260507034110 12 167 8.0 16.1 0.00 0.20 0.10 92 1012.7
20260507033102 12 191 6.4 16.1 0.00 0.20 0.10 92 1012.7
20260507032046 12 173 8.0 16.1 0.00 0.20 0.10 92 1012.7
20260507031035 12 212 8.0 14.5 0.00 0.20 0.10 92 1012.7
20260507030048 12 198 6.4 12.9 0.00 0.20 0.10 92 1012.8
20260507023929 12 216 6.4 16.1 0.00 0.28 0.10 92 1012.8
20260507022905 12 173 6.4 17.7 0.00 0.28 0.10 92 1012.6
20260507021906 12 214 8.0 17.7 0.00 0.28 0.10 92 1012.6
20260507020859 12 206 8.0 16.1 0.00 0.28 0.10 92 1012.6
20260507015849 12 189 6.4 12.9 0.00 0.28 0.10 92 1012.6
20260507014911 12 186 4.8 12.9 0.00 0.28 0.10 92 1012.7
20260507013840 13 189 4.8 17.7 0.00 0.28 0.10 92 1012.6
20260507012853 13 172 8.0 17.7 0.00 0.28 0.10 92 1012.6
20260507011835 13 211 6.4 16.1 0.08 0.28 0.10 91 1012.6
20260507010839 13 235 6.4 16.1 0.08 0.28 0.10 91 1012.5
20260507005902 13 0 4.8 12.9 0.15 0.25 0.08 91 1012.5
20260507004843 13 217 6.4 22.5 0.13 0.23 0.08 90 1012.7
20260507002728 13 185 9.7 17.7 0.00 0.18 0.03 90 1012.7
20260507001746 13 204 8.0 17.7 0.00 0.18 0.03 90 1012.6
20260507000730 13 230 6.4 17.7 0.00 0.18 0.03 90 1012.7
20260506235659 13 208 6.4 16.1 0.00 0.18 0.03 90 1012.6
20260506234718 13 165 6.4 16.1 0.00 0.18 0.03 91 1012.6
20260506232624 14 196 4.8 11.3 0.00 0.18 0.03 90 1012.7
20260506231642 14 146 4.8 11.3 0.10 0.18 0.03 90 1012.7
20260506230628 14 190 3.2 12.9 0.25 0.18 0.03 89 1012.8
20260506225603 15 187 3.2 12.9 0.00 0.15 0.00 88 1012.9
20260506224600 15 234 4.8 12.9 0.00 0.15 0.00 88 1012.9
20260506223622 15 177 6.4 12.9 0.00 0.15 0.00 88 1013.0
20260506221455 15 214 4.8 11.3 0.00 0.15 0.00 87 1013.0
20260506220455 15 188 4.8 9.7 0.00 0.15 0.00 87 1012.9
20260506214336 15 189 9.7 16.1 0.00 0.15 0.15 87 1012.8
20260506213203 15 198 8.0 14.5 0.00 0.15 0.15 87 1012.8
20260506210950 15 185 6.4 17.7 0.00 0.15 0.15 87 1013.0
20260506204820 15 181 9.7 19.3 0.00 0.15 0.15 86 1012.8
20260506203808 15 194 9.7 17.7 0.00 0.15 0.15 86 1012.9
20260506202741 15 171 9.7 12.9 0.00 0.15 0.15 86 1012.9
20260506194721 15 167 4.8 11.3 0.00 0.15 0.15 87 1012.4
20260506193726 15 165 4.8 11.3 0.00 0.15 0.15 87 1012.4
20260506192708 15 169 3.2 9.7 0.00 0.15 0.15 87 1012.2
20260506191706 15 159 4.8 9.7 0.00 0.15 0.15 86 1012.2
20260506190703 15 154 3.2 12.9 0.00 0.13 0.13 86 1012.1
20260506184514 15 210 8.0 19.3 0.00 0.13 0.13 86 1011.7
20260506183441 15 199 8.0 17.7 0.00 0.13 0.13 87 1011.6
20260506181309 15 236 6.4 14.5 0.00 0.13 0.13 87 1011.6
20260506180329 16 227 8.0 14.5 0.00 0.13 0.13 86 1011.6
20260506175326 15 243 6.4 16.1 0.00 0.13 0.13 86 1011.5
20260506174305 16 196 6.4 16.1 0.00 0.13 0.13 86 1011.5
20260506173304 16 219 4.8 11.3 0.00 0.13 0.13 85 1011.5
20260506172242 16 211 8.0 16.1 0.00 0.10 0.13 83 1011.5
20260506171236 16 212 8.0 17.7 0.00 0.10 0.10 83 1011.3
20260506170233 16 0 8.0 17.7 0.00 0.10 0.10 84 1011.4
20260506165203 16 151 3.2 11.3 0.00 0.10 0.10 85 1011.4
20260506163135 16 0 6.4 16.1 0.00 0.10 0.10 84 1011.4
20260506162157 16 205 8.0 16.1 0.00 0.10 0.10 83 1011.3
20260506161146 16 182 4.8 14.5 0.00 0.10 0.10 82 1011.3
20260506160114 16 238 8.0 14.5 0.00 0.10 0.10 82 1011.4
20260506155058 16 218 8.0 16.1 0.00 0.10 0.10 81 1011.3
20260506154108 16 194 8.0 16.1 0.00 0.10 0.10 82 1011.3
20260506153059 16 209 9.7 17.7 0.00 0.10 0.10 82 1011.4
20260506152047 16 229 8.0 17.7 0.00 0.10 0.10 82 1011.4
20260506145919 16 253 6.4 16.1 0.00 0.08 0.08 83 1011.3
20260506144907 16 223 6.4 16.1 0.00 0.08 0.08 81 1011.3
20260506143835 17 233 11.3 17.7 0.00 0.08 0.08 73 1011.4
20260506142825 18 234 8.0 24.1 0.00 0.08 0.08 66 1011.1
20260506141757 18 210 11.3 24.1 0.00 0.08 0.08 65 1011.0
20260506140804 18 208 8.0 19.3 0.00 0.08 0.08 65 1011.0
20260506135735 18 160 6.4 17.7 0.00 0.08 0.08 65 1011.2
20260506134729 18 209 8.0 24.1 0.00 0.08 0.08 65 1011.3
20260506133718 18 186 11.3 24.1 0.00 0.08 0.08 64 1011.4
20260506132730 19 172 11.3 20.9 0.00 0.08 0.08 64 1011.6
20260506130613 18 252 9.7 20.9 0.00 0.08 0.08 63 1011.8
20260506125551 18 207 9.7 20.9 0.00 0.08 0.08 63 1011.9
20260506124522 18 217 9.7 20.9 0.00 0.08 0.08 63 1011.9
20260506122355 18 208 11.3 27.4 0.00 0.08 0.08 65 1011.7
20260506120158 19 221 12.9 25.7 0.00 0.08 0.08 63 1011.6
20260506115203 19 219 14.5 24.1 0.00 0.08 0.08 64 1011.7
20260506114134 19 196 12.9 29.0 0.00 0.08 0.08 63 1011.8
20260506113126 19 217 9.7 29.0 0.00 0.08 0.08 64 1011.8
20260506112107 18 185 9.7 22.5 0.00 0.08 0.08 64 1011.9
20260506111100 18 203 9.7 22.5 0.00 0.08 0.08 63 1012.1
20260506110112 18 207 11.3 24.1 0.00 0.08 0.08 63 1012.0
20260506105104 18 202 12.9 30.6 0.00 0.08 0.08 60 1011.9
20260506104108 19 224 12.9 30.6 0.00 0.08 0.08 61 1011.9
20260506103038 18 176 8.0 27.4 0.00 0.08 0.08 64 1012.0
20260506102015 18 180 12.9 27.4 0.00 0.08 0.08 65 1012.3
20260506100942 18 200 9.7 20.9 0.00 0.08 0.08 67 1012.2
20260506095916 17 171 11.3 17.7 0.00 0.08 0.08 70 1012.1
20260506094906 17 220 14.5 33.8 0.00 0.08 0.08 69 1012.2
20260506093857 17 225 17.7 33.8 0.00 0.08 0.08 70 1012.2
20260506092841 17 196 16.1 27.4 0.00 0.08 0.08 69 1012.1
20260506091828 17 203 11.3 27.4 0.00 0.08 0.08 71 1012.2
20260506084518 16 163 8.0 17.7 0.00 0.08 0.08 77 1012.3
20260506083534 15 0 11.3 27.4 0.00 0.08 0.08 78 1012.3
20260506082543 15 188 9.7 27.4 0.00 0.08 0.08 79 1012.2
20260506081530 15 215 9.7 20.9 0.00 0.08 0.08 79 1012.4
20260506080528 15 190 6.4 17.7 0.00 0.08 0.08 80 1012.3
20260506071350 14 208 4.8 9.7 0.00 0.08 0.08 81 1012.4